디시인사이드 갤러리

갤러리 이슈박스, 최근방문 갤러리

갤러리 리스트 영역

갤러리 리스트
번호 제목 글쓴이 작성일 조회 추천
설문 연예인 안됐으면 어쩔 뻔, 누가 봐도 천상 연예인은? 운영자 24/06/17 - -
공지 리듬게임 갤러리 이용 안내 [114] 운영자 21.03.03 18454 12
724994 할인대상팩 안산거 2팩남았네 LaPiz갤로그로 이동합니다. 10:50 5 0
724992 따스팩 기간한정할인 [1] MintJams갤로그로 이동합니다. 10:42 24 0
724991 이녀석 조금은 성장했구나,,, [4] Honey2Jam갤로그로 이동합니다. 10:41 25 0
724990 코나스테기타도라 업뎃해놓고오늘팩안주는거실화냐 MEES_갤로그로 이동합니다. 10:40 13 0
724989 따오공장 오버클럭 모드로 콘 5일이면 주문제작되는데 [3] 따오콘호구갤로그로 이동합니다. 10:39 23 0
724988 비피엘팩언제풀어시발 [6] CU갤로그로 이동합니다. 10:30 39 0
724987 디스또삐아같은게생긴거보면유저풀이많이쫄여졋나볾 [4] 햄조갤로그로 이동합니다. 10:29 33 0
724986 갤럭시 폴드는 터씹없음? [12] 리갤러(122.45) 10:22 46 0
724985 기시다상간밧떼구다사이 [1] 햄조갤로그로 이동합니다. 10:17 24 0
724983 비엠에스 컨텐츠가 없다 [19] Sla갤로그로 이동합니다. 10:15 54 0
724982 따스 팩 반값세일이래 [7] kinetic갤로그로 이동합니다. 10:07 75 0
724981 겜디 왜 안열었지 [2] 리갤러(223.62) 10:06 26 0
724979 어 오미야에 기고생기네 [3] 니엔테갤로그로 이동합니다. 09:47 36 0
724978 이 사람은 아침부터 따스키고 방송하네 [4] ㅁㅁ갤로그로 이동합니다. 09:44 74 0
724977 우사오 메가믹스듣고 울엇어… MintJams갤로그로 이동합니다. 09:44 23 0
724976 와 엔비디아 시총이 마소애플 제꼈네 [11] kinetic갤로그로 이동합니다. 09:43 83 0
724975 DP근스가 참 괴롭구나 [9] 할배갤로그로 이동합니다. 09:37 36 0
724974 모닝랭크결산) 쁘라스200점흐흐 [4] 기본정보입력갤로그로 이동합니다. 09:36 23 0
724973 쿨됐 롤이 [1] 케톤갤로그로 이동합니다. 09:15 21 0
724972 라그진짜 미친새끼인가 [9] a55갤로그로 이동합니다. 09:07 137 0
724971 알바비루팡중 [2] GPS_RLIN갤로그로 이동합니다. 09:05 38 0
724970 키븜스는 어캐하나 궁금햇는데 [8] ㅇㅇ//갤로그로 이동합니다. 08:42 79 0
724969 가습기 틀엇음 [8] MintJams갤로그로 이동합니다. 08:39 49 0
724968 혼기 놓친 처자 [7] 미호맨갤로그로 이동합니다. 08:30 80 0
724967 밤샘마작하고3시간자고출근 [5] 939618193939갤로그로 이동합니다. 08:29 44 0
724966 존나일하기싫은데 몽키박댄스 들으면서 억텐올리는중… [6] MintJams갤로그로 이동합니다. 08:23 54 0
724965 슬슬종강시즌인가 [7] 햄조갤로그로 이동합니다. 08:20 68 1
724964 젓탱이조물딱 ~ 광부혁진갤로그로 이동합니다. 08:13 23 0
724963 내일아리-나개장가시는분 [12] 햄조갤로그로 이동합니다. 08:09 60 0
724961 여러분 안녕하세요 이슬여왕 (223.62) 07:57 14 0
724960 엄청일찍일어나고눈도말똥말똥해서랭크중. [9] 기본정보입력갤로그로 이동합니다. 07:51 48 0
724959 재획 ㄱ 광부혁진갤로그로 이동합니다. 07:44 11 0
724958 진지하게 한녀들보다 내 여친이 더 예쁜듯 ㅇㅇ [1] 메쿠이로갤로그로 이동합니다. 07:40 42 0
724957 평일간만에쉬어보자꾸나 [11] 누렁이.갤로그로 이동합니다. 07:39 64 0
724956 ... 출근 미워 [5] ㅇㅇ갤로그로 이동합니다. 07:36 49 0
724954 ㅎㅇ [6] 땅토마토갤로그로 이동합니다. 06:36 62 0
724949 비토라자 DP발광표 최신화가 왜 안되나 했더니만 [5] 한손맨p갤로그로 이동합니다. 04:50 81 1
724939 곧19층이네요 [10] 큐벨리아갤로그로 이동합니다. 04:07 95 0
724930 애스진짜잠깐함 MEES_갤로그로 이동합니다. 03:37 26 0
724921 리커맨드도시락까먹기 [4] 플레어갤로그로 이동합니다. 02:25 51 0
724920 뭐냐이건.. KSG갤로그로 이동합니다. 02:17 25 0
724919 팩트는 백부트가 사기라는 거임.... [1] ㅇㅇ갤로그로 이동합니다. 02:15 49 0
724918 으흐흐 오늘 두개건져서 기분조움 [3] EITHER+갤로그로 이동합니다. 02:08 55 0
724917 자러감. 앳모갤로그로 이동합니다. 02:07 30 0
724915 하 애니보면 남주는 항상 계집 수십명이 꼬이던데 [1] 앳모갤로그로 이동합니다. 02:04 57 1
724914 이런계집만나고싶어 [4] 앳모갤로그로 이동합니다. 02:03 112 0
724913 뭐하노 MEES_갤로그로 이동합니다. 02:02 27 0
724912 이치카 쟝귀여움 [5] EITHER+갤로그로 이동합니다. 02:01 75 0
724911 요새 2배스크아닌곳 많나 [3] KSG갤로그로 이동합니다. 01:58 73 0
갤러리 내부 검색
제목+내용게시물 정렬 옵션

오른쪽 컨텐츠 영역

실시간 베스트

1/8

뉴스

디시미디어

디시이슈

1/2